Regional Weather Roundup
Issued by NWS

Home | Current Version | Previous Version | Graphics & Text | Print | Product List | Glossary On
Versions: 1 2 3 4 5 6 7 8 9 10 11 12 13 14 15 16 17 18 19 20 21 22 23 24 25 26 27 28 29 30 31 32 33 34 35 36 37 38 39 40 41 42 43 44 45 46 47 48 49 50
553
ASUS45 KBOU 261507
RWRCO

WEATHER ROUNDUP FOR COLORADO
NATIONAL WEATHER SERVICE DENVER/BOULDER CO
900 AM MDT SUN MAR 26 2017

NOTE: "FAIR" INDICATES FEW OR NO CLOUDS BELOW 12000 FEET WITH NO
SIGNIFICANT WEATHER AND/OR OBSTRUCTIONS TO VISIBILITY.

COZ001>005-013-030-031-261600-
...NORTHWEST COLORADO...

CITY           SKY/WX    TMP DP  RH WIND       PRES   REMARKS
CRAIG          CLOUDY    37  28  70 W9        30.01R
HAYDEN         CLOUDY    32  28  86 SW7       30.00R WCI  26
MEEKER         CLOUDY    39  30  70 S5        30.00R
MOUNT WERNER   NOT AVBL
STEAMBOAT SPGS CLOUDY    33  30  90 S8        29.98R WCI  25
WALDEN         NOT AVBL
$$

COZ006>008-011-261600-
...WEST CENTRAL VALLEYS...

CITY           SKY/WX    TMP DP  RH WIND       PRES   REMARKS
GRAND JUNCTION PTSUNNY   47  36  65 NW7       29.95R
MONTROSE       PTSUNNY   41  38  89 SE3       29.98R
EAGLE          CLOUDY    37  34  87 CALM      29.97R
RIFLE          CLOUDY    45  34  65 W12       29.96R
DELTA          CLOUDY    47  40  78 NE5       29.95R
NUCLA          FAIR      41  37  87 CALM      30.00R
$$

COZ017>023-064>068-261600-
...SOUTHWEST COLORADO...

CITY           SKY/WX    TMP DP  RH WIND       PRES   REMARKS
DURANGO        FAIR      39  32  76 CALM      29.92R
CORTEZ         FAIR      43  39  86 W8        29.97R
PAGOSA SPRINGS FAIR      37  32  82 SW6       29.94R
TELLURIDE      SNOW      31  31 100 W14       29.99R VSB 1/4 WCI  21
WOLF CREEK PAS FAIR      21  21 100 NW3       30.02R FOG
$$

COZ009-010-012-014-032>034-037-058>063-261600-
...CENTRAL COLORADO...

CITY           SKY/WX    TMP DP  RH WIND       PRES   REMARKS
ASPEN          CLOUDY    35  33  92 N7        29.94R WCI  29
BUENA VISTA    FAIR      42  23  46 NW23G29   29.87R
COPPER MTN     NOT AVBL
BERTHOUD PASS  CLOUDY    18   9  68 N18G26    29.96R WCI   2
COTTONWOOD PAS FAIR      37  18  44 SW13G18   29.91S
GUNNISON       PTSUNNY   37  31  78 CALM      29.93R
KREMMLING      CLOUDY    41  37  87 CALM      29.95R
LEADVILLE      FAIR      30  21  69 N16G26    29.93R WCI  19
MONARCH PASS   FAIR      21  19  93 NW15G22   30.06R WCI   8
SALIDA         FAIR      44  31  60 NW7       29.93S
SUNLIGHT       FOG      N/A N/A N/A CALM      30.04R VSB<1/4
WILKERSON PASS PTSUNNY   27  23  86 NE7       29.96R FOG     WCI  19
$$

COZ069>075-261600-
...SAN LUIS VALLEY/SANGRE DE CRISTO MOUNTAINS...

CITY           SKY/WX    TMP DP  RH WIND       PRES   REMARKS
ALAMOSA        PTSUNNY   37  34  89 CALM      29.86S
LA VETA PASS   NOT AVBL
SAGUACHE       FAIR      41  32  70 N17       29.89R
$$

COZ035-036-038>040-261600-
...NORTHERN COLORADO FRONT RANGE...

CITY           SKY/WX    TMP DP  RH WIND       PRES   REMARKS
DENVER INTL AP PTSUNNY   42  30  62 N13       29.86R
DMNS CITY PARK   N/A     44  30  56 N3        29.87S
AURORA         PTSUNNY   39  31  70 NW10      29.87R
FRONT RANGE AP CLOUDY    43  34  70 NW14      29.86R
ERIE MUNI ARPT PTSUNNY   46  35  63 CALM      29.88R
BOULDER MUN AP CLOUDY    46  36  66 NW3       29.87R
CENTENNIAL     LGT RAIN  42  30  62 N13       29.87R
BROOMFIELD     PTSUNNY   45  32  61 N5        29.88S
FORT COLLINS   FAIR      48  36  63 NE10      29.87R
LONGMONT       PTSUNNY   50  38  62 CALM      29.89R
$$

COZ041-046-047-076>085-087-088-261600-
...PIKES PEAK/PALMER DIVIDE AND SOUTHERN FOOTHILLS...

CITY           SKY/WX    TMP DP  RH WIND       PRES   REMARKS
COLO. SPRINGS  CLOUDY    43  34  70 N25G36    29.81R
A. F. ACADEMY  LGT RAIN  40  34  76 N17G29    29.84R
SCHRIEVER AFB  PTSUNNY   41  34  76 NW22G29   29.80
ELLICOTT         N/A    N/A N/A N/A N18G30    29.79R
FALCON         PTSUNNY   38  33  85 N18G32    29.83S
FORT CARSON    PTSUNNY   45  35  68 N29G39    29.79R
LIMON          LGT RAIN  39  35  86 NE16      29.82R
MONUMENT HILL  CLOUDY    34  32  93 NW13      29.88R WCI  25
TRINIDAD       RAIN      37  33  85 NW20      29.81R FOG
$$

COZ042>045-048>051-090-091-261600-
...NORTHEAST COLORADO...

CITY           SKY/WX    TMP DP  RH WIND       PRES   REMARKS
GREELEY ARPT   CLOUDY    48  36  63 NE10      29.87R
AKRON          CLOUDY    41  36  82 N7        29.84R
BURLINGTON     FAIR      44  41  89 E18       29.79S
WRAY           NOT AVBL
STERLING       CLOUDY    43  36  75 CALM      29.85R
HOLYOKE        CLOUDY    43  41  93 CALM      29.89R FOG
FORT MORGAN    PTSUNNY   43  32  64 N9        29.87R
$$

COZ086-089-092>099-261600-
...SOUTHEAST COLORADO...

CITY           SKY/WX    TMP DP  RH WIND       PRES   REMARKS
PUEBLO         LGT RAIN  46  37  71 W6        29.79R
LA JUNTA       CLOUDY    41  36  82 NE6       29.77R
LAMAR          CLOUDY    42  37  82 NE7       29.74R
SPRINGFIELD      N/A     51  31  46 NW18      29.69S
$$




USA.gov is the U.S. government's official web portal to all federal, state and local government web resources and services.